Hourly Data Report for July 23, 2021

LONDON CS
ONTARIO
Current Station Operator: ECCC - MSC

43°02'00.000" N
81°09'00.000" W
278.00 m
6144478
71622
WSN

Download Data

Hourly Data (July 2021)
Hourly Data Report for July 23, 2021
TIME
LST
Temp Definition
°C
Dew Point Definition
°C
Rel Hum Definition
%
Precip. Amount Definition
mm

Wind Dir Definition
10's deg

Wind Spd Definition
km/h
Visibility Definition
km
Stn Press Definition
kPa
Hmdx Definition


Wind Chill Definition


Weather Definition


00:00 17.5 12.7 74 0.0       99.04     LegendNANA
01:00 17.6 13.9 79 0.0       99.03     LegendNANA
02:00 16.8 13.7 82 0.0       99.01     LegendNANA
03:00 16.7 13.7 83 0.0       99.00     LegendNANA
04:00 16.7 13.8 83 0.0       99.01     LegendNANA
05:00 16.8 13.5 81 0.0       99.02     LegendNANA
06:00 16.6 13.8 84 0.0       99.04     LegendNANA
07:00 17.4 13.9 80 0.0       99.06     LegendNANA
08:00 18.5 13.7 73 0.0       99.06     LegendNANA
09:00 21.6 13.3 59 0.0       99.06 25   LegendNANA
10:00 22.6 12.5 53 0.0       99.05 25   LegendNANA
11:00 24.4 15.0 56 0.0       99.04 28   LegendNANA
12:00 24.4 11.8 45 0.0       99.00 27   LegendNANA
13:00 25.3 14.7 52 0.0       98.94 29   LegendNANA
14:00 25.5 13.5 47 0.0       98.91 29   LegendNANA
15:00 25.1 14.8 53 0.0       98.87 29   LegendNANA
16:00 24.5 14.5 54 0.0       98.81 28   LegendNANA
17:00 23.7 14.7 57 0.0       98.79 27   LegendNANA
18:00 23.3 14.7 58 0.0       98.74 27   LegendNANA
19:00 22.3 11.0 49 0.0       98.73     LegendNANA
20:00 20.2 13.0 63 0.0       98.70     LegendNANA
21:00 18.6 13.0 70 0.0       98.73     LegendNANA
22:00 17.5 12.4 72 0.0       98.74     LegendNANA
23:00 17.3 12.7 74 0.0       98.72     LegendNANA

Notes on Data Quality.

Legend

  • E = Estimated
  • M = Missing
  • NA = Not Available*
  • [empty] = Indicates an unobserved value
Date modified: